Home > Weather > Surat > Past weeks

Flag for India Past Weather in Surat, Gujarat, India — Yesterday and Last 2 Weeks

Now
82 °F

Partly cloudy.


Feels Like: 91 °F
Forecast: 79 / 85 °F
Wind: 6 mph from Southwest

Location: Ahmadabad Airport

Current Time: Jul 28, 2016 at 11:59:50 PM

Latest Report: Jul 28, 2016 at 11:30 PM


Visibility: 2 mi

Pressure: 29.68 "Hg

Humidity: 84%

Dew Point: 77 °F

Location of SuratLocation

Past Weather in Surat — Graph

°F

Surat Temperature Yesterday

Maximum temperature yesterday: 86 °F (at 12:00 AM)
Minimum temperature yesterday: 81 °F (at 6:30 AM)
Average temperature yesterday: 82 °F

High & Low Weather Summary for the Past Weeks

 TemperatureHumidityPressure
High95 °F (Jul 22, 3:00 PM)94% (Jul 14, 5:30 PM)29.74 "Hg (Jul 14, 5:30 PM)
Low79 °F (Jul 19, 10:00 AM)47% (Jul 22, 5:30 PM)29.50 "Hg (Jul 14, 5:30 PM)
Average85 °F76%29.63 "Hg
* Reported Jul 13 10:30 PM — Jul 28 10:30 PM, Surat, Weather by CustomWeather, © 2016

Note: Actual official high and low records may vary slightly from our data, if they occured in-between our weather recording intervals... More about our weather records

Advertising

Surat Weather History for the Previous 24 Hours

Scroll right to see more
 ConditionsComfort  
Time TempWeatherWind HumidityBarometerVisibility
10:30 PM
Thu, Jul 28
82 °FPartly cloudy.3 mph84%29.68 "Hg2 mi
10:00 PM82 °FPartly cloudy.7 mph84%29.68 "Hg2 mi
9:30 PM82 °FPartly cloudy.7 mph84%29.65 "Hg2 mi
9:00 PM84 °FPartly cloudy.6 mph84%29.65 "Hg2 mi
8:30 PM84 °FPassing clouds.2 mph84%29.65 "Hg2 mi
8:00 PM84 °FPassing clouds.2 mph79%29.62 "Hg2 mi
7:30 PM84 °FPartly sunny.2 mph79%29.62 "Hg2 mi
7:00 PM84 °FPartly sunny.2 mph79%29.62 "Hg3 mi
6:30 PM84 °FPartly sunny.3 mph84%29.62 "Hg3 mi
6:00 PM84 °FMore clouds than sun.3 mph84%29.62 "Hg3 mi
5:30 PM84 °FMore clouds than sun.5 mph79%29.59 "Hg4 mi
5:00 PM86 °FMore clouds than sun.5 mph75%29.62 "Hg4 mi
4:30 PM86 °FMore clouds than sun.3 mph79%29.62 "Hg4 mi
4:00 PM86 °FOvercast.3 mph79%29.62 "Hg4 mi
3:30 PM86 °FOvercast.2 mph79%29.62 "Hg4 mi
3:00 PM84 °FOvercast.3 mph84%29.65 "Hg4 mi
2:30 PM84 °FOvercast.3 mph84%29.65 "Hg4 mi
2:00 PM86 °FOvercast.3 mph75%29.65 "Hg4 mi
1:30 PM86 °FMore clouds than sun.2 mph75%29.68 "Hg4 mi
1:00 PM86 °FMore clouds than sun.2 mph75%29.68 "Hg4 mi
12:30 PM84 °FMore clouds than sun.2 mph79%29.71 "Hg4 mi
12:00 PM84 °FMore clouds than sun.2 mph79%29.71 "Hg4 mi
11:30 AM84 °FMore clouds than sun.3 mph79%29.71 "Hg4 mi
11:00 AM82 °FMore clouds than sun.3 mph79%29.71 "Hg3 mi
10:30 AM82 °FMore clouds than sun.5 mph79%29.71 "Hg3 mi
10:00 AM82 °FPartly sunny.5 mph79%29.71 "Hg3 mi
9:30 AM82 °FPartly sunny.3 mph79%29.71 "Hg3 mi
9:00 AM81 °FPartly sunny.5 mph84%29.71 "Hg2 mi
8:30 AM81 °FBroken clouds.6 mph89%29.71 "Hg2 mi
8:00 AM81 °FBroken clouds.3 mph89%29.68 "Hg2 mi
7:30 AM81 °FLight rain. More clouds than sun.6 mph89%29.68 "Hg2 mi
7:00 AM81 °FLight rain. More clouds than sun.7 mph89%29.68 "Hg2 mi
6:30 AM81 °FDrizzle. Mostly cloudy.6 mph89%29.65 "Hg2 mi
6:00 AM81 °FMostly cloudy.6 mph89%29.65 "Hg2 mi
5:30 AM81 °FPassing clouds.5 mph89%29.65 "Hg2 mi
5:00 AM81 °FPassing clouds.5 mph89%29.65 "Hg2 mi
4:30 AM81 °FPassing clouds.5 mph89%29.65 "Hg2 mi
4:00 AM81 °FPassing clouds.5 mph89%29.65 "Hg2 mi
3:30 AM81 °FPassing clouds.7 mph84%29.65 "Hg2 mi
3:00 AM81 °FPassing clouds.7 mph84%29.65 "Hg2 mi
2:30 AM81 °FPassing clouds.8 mph84%29.65 "Hg2 mi
2:00 AM81 °FPartly cloudy.5 mph84%29.65 "Hg2 mi
1:00 AM81 °FPartly cloudy.7 mph84%29.68 "Hg2 mi
12:30 AM81 °FPartly cloudy.6 mph84%29.68 "Hg2 mi
12:00 AM81 °FPartly cloudy.3 mph84%29.68 "Hg2 mi
11:30 PM
Wed, Jul 27
81 °FPartly cloudy.5 mph89%29.68 "Hg2 mi
11:00 PM81 °FPartly cloudy.3 mph89%29.68 "Hg2 mi
Weather by CustomWeather, © 2016

See weather overviewHow to use our weather pages